Voltar ao catálogo

FENGYUN 1C DEB

LostPO
NORAD 37425·DEBRIS·🇨🇳 China

Lançado May 10, 1999 de Taiyuan Satellite Launch Center

Loading…

Próximas Passagens (próximas 24 horas)

TLE

ObsoletoSource: Space-Track

Época: Mar 8, 2025, 13:43 UTC

1 37425U 99025EGT 25067.57172661  .00002646  00000-0  20458-2 0  9990
2 37425  97.1659 347.6094 0158134 242.9873 244.4237 13.87684346612803

Acompanhe FENGYUN 1C DEB em tempo real com AllMySat

Download on the App Store